Theta_e
320 320 320 320 320 319 319 319 319 330 335 335 336 336 334 334 332 330 330 332 334 335 335 336 337 338 338 335 334 334 333 333 334 330 328 330 331 331 331 330 328 325 325
321 321 320 320 320 320 319 319 321 325 333 335 335 334 333 331 330 327 328 332 334 334 336 337 338 339 339 338 335 336 336 335 335 334 329 327 329 331 331 331 331 328 324
321 321 321 321 320 320 320 320 322 328 330 331 332 331 330 328 328 326 330 332 334 336 337 337 337 337 338 339 337 337 337 335 336 335 334 328 327 329 330 331 331 330 328
322 321 321 321 321 321 321 320 322 325 328 329 331 331 329 327 327 325 330 332 330 332 334 335 335 337 338 338 339 338 338 337 336 335 335 334 328 327 329 330 331 331 330
328 323 322 322 322 322 321 321 321 321 324 326 331 332 332 328 325 325 327 331 331 331 333 335 335 336 335 337 338 340 339 338 337 337 336 335 334 330 327 330 331 331 331
334 328 325 324 325 323 323 322 322 321 323 326 334 333 331 327 326 325 328 331 331 331 331 334 333 333 335 334 336 339 339 338 337 337 338 336 334 334 333 328 330 331 331
331 332 331 328 328 326 323 323 323 321 329 336 333 333 330 329 330 328 331 332 332 331 332 333 332 332 335 334 334 339 340 338 336 335 338 338 336 334 335 332 329 331 331
331 324 331 331 332 331 324 325 324 324 328 337 335 333 332 330 332 331 331 332 333 334 330 331 332 332 334 338 337 336 340 338 336 335 335 337 334 335 335 335 334 331 331
331 330 328 328 331 330 329 326 324 326 335 340 333 333 335 334 332 334 333 333 331 332 330 329 332 331 332 333 338 337 335 336 336 336 334 335 333 331 331 332 333 333 333
328 329 331 334 332 337 333 329 325 332 339 341 336 335 334 332 332 334 331 330 331 331 331 331 330 330 331 335 335 337 335 334 334 336 336 334 333 334 332 330 331 333 333
336 337 335 339 339 337 337 338 336 339 341 339 337 334 335 334 332 334 335 332 330 332 332 331 331 330 331 334 337 333 335 335 335 335 336 335 334 333 332 330 329 330 331
338 338 338 339 339 339 342 339 339 340 337 335 332 331 330 335 334 332 333 332 335 335 335 333 331 331 331 334 334 333 334 338 336 335 335 335 334 332 333 332 330 329 328
337 333 337 340 338 339 339 339 338 333 333 329 328 330 336 334 336 335 335 334 336 336 335 332 331 332 332 334 334 334 334 338 336 337 336 334 335 334 333 333 331 331 329
333 335 338 337 335 338 337 337 338 337 334 327 332 335 336 337 338 337 336 334 334 336 336 334 334 333 336 336 334 331 336 337 337 336 335 335 333 332 331 330 327 327 327
320 332 338 338 338 337 336 338 338 337 337 336 336 335 335 332 333 334 334 335 336 337 336 335 337 334 337 338 336 336 337 336 335 334 332 332 331 330 327 325 325 326 326
317 320 325 333 336 336 336 337 336 335 335 335 334 333 333 334 334 332 332 333 330 332 334 336 338 334 336 338 337 337 336 335 334 332 332 331 328 326 326 327 326 326 327
316 317 318 318 321 322 322 324 324 324 325 325 327 327 327 325 323 323 322 327 331 331 333 335 334 334 336 338 337 336 336 334 332 332 330 329 326 325 327 325 325 324 324
314 314 315 315 316 317 317 317 317 317 316 316 316 316 316 317 316 316 317 323 329 331 334 334 334 335 335 335 333 336 336 334 333 329 329 328 325 326 326 325 325 325 324
315 316 317 317 317 317 317 317 317 318 317 317 317 316 314 320 319 318 316 325 330 328 326 332 330 330 331 334 332 334 336 334 332 329 329 327 325 326 325 325 325 325 325
315 315 316 316 317 317 317 317 318 318 319 318 317 317 316 315 322 321 323 322 328 332 326 330 329 328 328 328 333 335 335 334 331 329 328 325 326 326 325 325 325 325 325
315 315 316 316 317 317 316 316 318 319 320 319 318 317 317 316 316 324 324 326 331 326 324 328 331 331 327 327 332 332 335 333 330 329 326 326 327 326 325 324 324 324 324
316 316 316 316 315 314 313 313 315 317 317 317 315 312 312 314 314 315 324 325 328 332 330 338 333 334 329 330 332 334 334 332 333 328 325 327 327 326 324 324 323 324 325
317 316 317 317 316 314 313 313 313 313 313 312 310 309 310 316 313 314 319 324 327 333 332 335 337 335 334 333 333 335 333 331 332 327 327 330 326 327 325 324 321 322 324
317 316 316 314 314 314 314 314 313 313 313 312 311 310 309 313 314 315 317 323 325 334 334 332 334 333 333 331 332 333 332 330 329 326 326 331 327 327 325 324 323 324 324
315 315 314 314 313 313 313 313 313 313 313 312 311 310 310 315 316 315 318 322 326 329 334 333 333 332 328 330 331 330 329 331 331 329 326 330 327 325 324 323 323 323 324
314 313 313 313 313 313 313 313 313 312 311 311 310 309 310 316 317 316 315 322 328 332 333 333 330 330 330 329 329 329 329 331 331 330 328 330 326 327 328 323 324 322 322
Wind_Speed
32 29 27 24 21 18 15 11 8 6 5 5 4 3 3 4 5 6 7 9 9 9 9 8 7 6 7 6 7 11 12 12 10 11 13 14 13 13 12 13 12 14 15
32 30 27 25 23 20 15 12 10 9 8 7 7 6 7 8 7 6 8 9 10 11 10 9 8 8 10 8 6 8 10 12 12 11 13 15 14 15 14 15 14 14 15
33 31 29 26 22 19 15 14 12 10 9 8 9 11 11 11 9 6 4 7 11 11 9 9 7 9 11 12 9 8 8 8 12 12 13 14 16 16 17 17 16 15 15
35 33 31 27 24 22 17 18 15 14 12 10 11 12 13 12 12 6 2 4 11 10 7 5 6 11 13 12 13 11 10 9 9 12 15 13 15 18 19 18 17 17 15
38 35 33 30 26 23 21 21 18 17 15 12 13 14 15 14 14 11 5 1 10 10 8 8 10 12 13 14 14 15 13 11 11 11 13 15 14 16 20 20 19 19 17
42 37 34 31 28 27 24 25 20 21 17 13 12 13 15 14 14 12 6 5 5 13 9 9 12 16 15 13 14 16 16 14 13 14 15 14 15 16 18 21 21 20 19
41 35 34 32 33 30 26 25 20 22 18 12 8 12 13 13 13 8 9 5 7 12 16 17 25 19 17 15 14 13 15 13 14 15 16 14 15 17 17 19 22 21 20
38 40 37 33 35 33 31 32 27 24 22 16 11 9 7 10 2 4 13 14 12 16 23 26 29 26 20 17 16 13 14 12 12 14 15 14 13 14 17 18 19 22 21
34 31 36 38 36 35 34 32 31 31 26 22 15 8 3 4 16 13 15 16 16 22 24 23 25 24 29 26 19 14 12 12 12 12 14 15 14 14 14 16 18 20 20
31 30 32 32 31 28 30 32 27 29 26 20 14 12 14 21 18 22 31 27 23 24 22 24 27 30 27 25 17 15 13 12 12 13 13 15 16 15 15 15 16 18 18
31 28 25 26 25 29 31 27 28 26 27 24 17 21 32 41 39 32 31 33 38 30 24 27 35 32 33 21 16 15 14 13 12 13 14 16 16 16 16 16 17 16 17
28 29 30 31 29 29 30 31 30 26 19 23 25 45 52 41 31 33 35 38 31 37 35 35 37 39 29 20 16 15 14 14 14 14 16 16 15 16 18 17 19 18 17
33 33 35 35 32 30 29 30 31 38 47 34 41 41 38 37 29 32 35 32 27 28 30 39 36 30 20 14 14 12 13 14 14 15 16 16 15 18 19 21 20 20 18
32 34 36 35 34 29 28 28 27 23 25 19 36 32 33 28 26 23 23 28 31 26 25 34 31 22 10 10 10 10 11 12 13 13 15 15 15 16 18 21 21 19 18
25 28 32 32 32 27 25 20 21 20 20 28 25 31 28 26 27 27 26 28 28 24 26 22 14 13 11 13 9 9 11 11 11 12 11 12 14 17 17 15 15 15 15
22 24 25 26 25 25 27 28 28 25 26 26 25 22 21 19 19 19 20 16 16 23 21 13 12 18 18 14 10 10 11 11 11 11 12 14 16 14 11 10 10 12 13
19 19 18 17 17 16 16 16 15 15 15 15 14 15 15 15 16 17 17 15 12 16 25 21 21 18 19 14 12 12 12 11 11 11 13 13 13 11 9 8 8 9 9
17 17 18 17 16 14 13 11 10 8 7 6 8 11 13 15 17 17 15 13 11 9 17 20 20 20 21 15 14 14 14 12 12 12 12 12 10 9 8 8 7 6 6
17 16 15 16 15 13 12 10 9 6 4 4 6 8 11 12 15 15 15 14 13 9 15 23 23 22 21 19 19 17 15 13 12 11 12 11 9 8 7 4 3 3 4
18 20 19 17 16 14 12 11 10 8 8 8 10 11 13 14 15 15 16 17 16 15 21 28 25 19 21 22 24 20 16 14 13 12 12 9 8 8 6 4 5 5 5
20 20 21 21 18 15 12 11 11 11 11 12 14 15 16 16 17 17 18 19 19 19 20 35 33 29 24 26 30 20 16 14 12 11 10 6 7 7 6 5 5 6 7
24 24 22 21 20 18 13 11 11 11 13 15 18 20 21 20 20 20 19 20 21 22 24 30 27 30 28 28 25 21 15 12 5 8 6 6 7 6 6 6 7 7 7
29 28 27 26 24 23 20 16 15 16 18 20 23 24 26 23 22 22 23 22 22 22 24 30 28 27 23 18 19 18 16 11 6 6 3 3 4 4 7 7 7 6 6
35 31 29 27 25 24 22 20 20 22 25 26 26 27 27 26 24 23 24 25 23 23 21 25 24 14 11 11 17 13 13 11 9 7 5 3 3 1 5 7 6 7 6
33 33 31 29 27 26 24 24 26 28 31 31 30 29 27 25 24 23 23 25 26 24 21 19 16 12 7 9 17 16 14 10 6 5 8 5 1 2 1 4 6 7 8
31 31 32 32 30 29 29 28 30 31 31 32 33 30 27 25 23 25 24 26 29 26 19 16 14 10 9 14 15 13 10 10 7 6 8 6 2 1 0 2 3 2 2
Wind_Direction
209 208 207 207 213 216 220 224 229 236 233 229 227 228 265 298 323 334 337 317 305 293 286 273 274 291 312 323 293 275 270 272 271 275 251 251 253 260 260 261 259 255 249
214 217 214 215 216 221 227 233 236 237 245 260 270 279 282 287 302 329 332 323 307 294 283 278 281 292 298 308 317 296 292 276 272 269 263 252 251 255 256 255 257 255 249
221 223 222 225 223 234 231 244 250 244 251 262 276 283 287 286 290 324 325 343 343 330 299 278 283 294 292 293 297 300 307 301 274 270 267 257 251 252 256 256 256 261 257
226 227 229 228 233 231 232 241 243 251 252 266 280 289 290 287 290 295 276 34 22 15 356 330 324 318 286 279 281 281 284 299 303 285 272 265 257 250 254 256 256 259 262
232 228 232 232 232 235 239 244 247 250 258 266 276 285 293 291 292 286 247 115 18 7 335 330 306 317 304 271 267 267 271 283 290 291 287 272 264 260 252 255 254 254 259
237 231 232 237 236 234 236 242 248 257 259 267 276 289 300 303 301 283 238 245 335 2 351 339 335 330 314 280 268 257 263 270 281 291 283 285 273 268 263 252 254 255 256
238 240 240 239 243 239 234 239 241 256 250 258 268 292 315 303 308 276 197 268 294 337 358 355 353 340 316 290 280 259 260 263 275 287 280 280 280 267 267 260 255 254 254
222 231 240 248 248 242 241 239 239 242 246 239 246 298 313 311 173 9 238 304 299 293 329 336 342 339 312 294 292 279 261 269 273 280 277 273 276 267 264 264 260 254 252
223 225 226 236 247 252 246 244 238 234 234 240 235 224 217 274 325 323 308 295 310 325 315 306 330 329 323 289 278 275 267 272 278 276 273 271 274 269 270 269 266 262 256
225 229 233 237 248 250 249 242 241 240 227 233 227 252 255 284 292 299 296 296 298 297 303 317 331 323 323 304 277 269 273 281 283 274 275 271 268 270 274 276 271 263 258
228 231 232 239 244 245 246 245 237 232 227 226 239 272 290 287 287 275 278 281 290 282 296 305 313 317 311 295 274 274 271 279 289 275 274 268 274 272 274 274 275 267 261
228 235 238 247 251 251 247 244 243 243 238 265 256 278 275 275 276 276 273 278 279 285 291 302 310 305 298 286 268 267 274 272 282 274 275 268 267 272 272 273 274 269 262
230 234 240 245 251 252 251 252 250 249 251 257 260 258 270 267 267 271 276 282 280 284 293 301 300 290 297 273 263 270 276 273 273 274 272 264 270 273 274 271 268 267 264
233 235 238 244 249 249 252 255 250 251 231 218 244 253 258 264 269 273 281 286 287 283 293 303 294 297 291 293 269 275 277 276 271 274 269 267 272 274 276 274 270 266 261
231 231 234 239 243 240 243 241 233 232 239 230 236 245 256 262 264 269 273 276 286 289 293 285 283 305 290 304 275 267 285 281 273 276 275 278 282 284 278 273 270 266 264
227 225 226 231 236 237 234 234 234 230 226 228 231 241 253 261 272 277 280 281 290 295 268 277 298 309 306 298 274 270 287 276 275 276 281 289 292 286 284 276 271 264 262
209 212 213 212 213 212 212 211 210 212 217 227 238 249 259 271 278 282 292 284 290 299 275 292 299 313 315 297 278 279 284 275 268 279 289 296 292 285 288 277 268 265 258
203 209 208 205 203 201 199 196 199 202 215 240 262 273 283 288 288 289 285 273 276 306 303 285 310 310 316 301 287 280 278 267 265 284 290 295 285 285 281 277 275 260 246
200 199 195 192 192 194 194 196 188 198 228 267 293 306 300 307 303 299 285 274 266 289 305 278 290 289 300 306 290 275 274 262 265 283 294 294 278 275 271 268 250 231 229
209 211 208 205 203 204 208 215 221 235 253 275 288 296 303 299 308 298 286 281 271 269 295 275 276 277 284 294 284 269 268 257 265 281 297 281 269 259 261 255 252 246 253
213 208 213 212 213 213 217 226 235 248 262 278 284 293 296 304 291 300 291 283 275 262 287 274 265 266 276 287 275 270 256 243 265 282 287 271 259 257 258 265 266 257 260
217 213 209 212 212 212 217 225 233 250 267 280 289 296 298 298 304 287 293 285 274 264 262 261 260 261 271 279 261 257 234 234 247 283 262 261 244 254 270 271 267 260 258
221 215 211 214 215 218 228 234 245 265 279 288 295 297 294 294 297 295 290 296 275 265 251 258 260 266 267 264 261 246 227 234 224 260 228 233 245 249 259 268 256 258 263
215 216 214 217 222 228 235 246 260 275 285 291 298 299 289 284 291 297 295 295 286 279 266 256 256 244 224 252 255 230 227 225 234 230 207 210 270 299 275 255 256 261 260
213 216 222 228 233 241 248 257 267 278 284 293 298 302 285 275 282 295 292 292 286 279 272 253 221 213 233 242 237 219 222 195 191 210 210 210 240 344 324 292 271 262 250
217 219 226 232 241 250 257 263 270 277 287 293 297 299 280 264 274 288 287 285 286 284 266 217 190 198 230 249 219 217 219 203 184 195 212 190 170 148 3 22 15 329 265